Alexandria, MN

8:10 AM CST on December 11, 2019 (GMT -0600)
Chandler

Weather History for KAXN - October, 2019

Change the Weather History Date:

Friday, October 25, 2019

  Actual Average Record
Temperature  
Mean Temperature 44 °F -  
Max Temperature 55 °F 52 °F 81 °F (1989)
Min Temperature 32 °F 35 °F 20 °F (1957)
Degree Days  
Heating Degree Days 22    
Moisture  
Dew Point 30 °F    
Average Humidity 63    
Maximum Humidity 82    
Minimum Humidity 40    
Precipitation  
Precipitation 0.00 in - - ()
Sea Level Pressure  
Sea Level Pressure 30.13 in    
Wind  
Wind Speed 9 mph ()    
Max Wind Speed 16 mph    
Max Gust Speed 26 mph    
Visibility 10.0 miles    
Events      
Averages and records for this station are not official NWS values.
T = Trace of Precipitation, MM = Missing Value Source: Averaged Metar Reports

Daily Weather History Graph

Daily Weather History Graph

Search for Another Location

Airport or City:

Astronomy

Oct. 25, 2019 Rise Set
Actual Time 7:51 AM CDT 6:18 PM CDT
Civil Twilight 7:21 AM CDT 6:49 PM CDT
Nautical Twilight 6:46 AM CDT 7:24 PM CDT
Astronomical Twilight 6:11 AM CDT 7:58 PM CDT
Moon 4:20 AM CDT (10/25) 5:33 PM CDT (10/25)
Length of Visible Light 11h 28m
Length of Day
10h 27m
Waning Crescent, 9% of the Moon is Illuminated
Oct 25
Waning Crescent
Oct 27
New
Nov 4
First Quarter
Nov 12
Full
Nov 19
Last Quarter

Hourly Weather History & Observations

Time (CDT) Temp. Windchill Dew Point Humidity Pressure Visibility Wind Dir Wind Speed Gust Speed Precip Events Conditions
12:53 AM 33.1 °F 25.5 °F 24.1 °F 70% 30.32 in 10.0 mi South 9.2 mph - N/A   Clear
1:53 AM 32.0 °F 25.6 °F 25.0 °F 75% 30.30 in 10.0 mi South 6.9 mph - N/A   Clear
2:53 AM 35.1 °F 27.9 °F 27.0 °F 72% 30.28 in 10.0 mi SSW 9.2 mph - N/A   Mostly Cloudy
3:53 AM 35.1 °F 28.6 °F 28.0 °F 76% 30.26 in 10.0 mi SSW 8.1 mph - N/A   Mostly Cloudy
4:53 AM 34.0 °F 26.0 °F 27.0 °F 75% 30.25 in 10.0 mi SSW 10.4 mph - N/A   Clear
5:53 AM 33.1 °F 26.1 °F 27.0 °F 78% 30.25 in 10.0 mi SSW 8.1 mph - N/A   Clear
6:53 AM 32.0 °F 23.6 °F 27.0 °F 82% 30.24 in 10.0 mi SSW 10.4 mph - N/A   Clear
7:53 AM 33.1 °F 25.5 °F 28.0 °F 82% 30.23 in 10.0 mi South 9.2 mph - N/A   Clear
8:53 AM 34.0 °F 25.5 °F 28.9 °F 82% 30.22 in 10.0 mi SSW 11.5 mph - N/A   Clear
9:53 AM 37.0 °F 29.3 °F 30.0 °F 76% 30.20 in 10.0 mi SSW 11.5 mph - N/A   Clear
10:53 AM 42.1 °F 35.2 °F 30.0 °F 62% 30.19 in 10.0 mi SSW 12.7 mph - N/A   Clear
11:53 AM 44.1 °F 37.7 °F 30.0 °F 58% 30.16 in 10.0 mi SSW 12.7 mph - N/A   Clear
12:53 PM 48.0 °F - 30.9 °F 52% 30.13 in 10.0 mi South 11.5 mph - N/A   Clear
1:53 PM 52.0 °F - 33.1 °F 49% 30.09 in 10.0 mi South 12.7 mph - N/A   Clear
2:53 PM 54.0 °F - 32.0 °F 43% 30.06 in 10.0 mi SSW 12.7 mph 21.9 mph N/A   Clear
3:53 PM 55.0 °F - 30.9 °F 40% 30.03 in 10.0 mi SW 15.0 mph 26.5 mph N/A   Clear
4:53 PM 55.0 °F - 30.9 °F 40% 30.02 in 10.0 mi SSW 11.5 mph 21.9 mph N/A   Clear
5:53 PM 52.0 °F - 32.0 °F 47% 30.01 in 10.0 mi South 9.2 mph - N/A   Clear
6:53 PM 46.0 °F 41.9 °F 32.0 °F 58% 30.01 in 10.0 mi South 8.1 mph - N/A   Clear
7:53 PM 46.9 °F - 32.0 °F 56% 30.00 in 10.0 mi South 10.4 mph - N/A   Clear
8:53 PM 46.9 °F - 32.0 °F 56% 29.99 in 10.0 mi South 11.5 mph - N/A   Clear
9:53 PM 45.0 °F 39.3 °F 32.0 °F 60% 29.97 in 10.0 mi South 11.5 mph - N/A   Clear
10:53 PM 43.0 °F 37.2 °F 32.0 °F 65% 29.95 in 10.0 mi South 10.4 mph - N/A   Clear
11:53 PM 43.0 °F 35.4 °F 32.0 °F 65% 29.93 in 10.0 mi South 16.1 mph - N/A   Clear